AGGIESAT 4

Last updated on Tue Mar 13 2018 00:16:18 GMT+0000 (Coordinated Universal Time)

1 41313U 98067HP 18071.01090851 .37535990 12794-4 22365-3 0 9992 2 41313 51.6166 39.7363 0003024 270.6416 89.8040 16.54059622121479

Satellite not in orbit